Location: A�t �Alizem
(31.2076°N, 8.7872°W)
Time: 14:43:12
(UTC+00:00)

deb Explorer IX - Pass Details

Date: 30 June 2021
Orbit: 542 x 1234 km, 38.9° (Epoch: 23 July)

Event Time Altitude Azimuth Distance (km) Brightness Sun altitude
Rises 20:26:26 0° 242° (WSW) 2,729 ? -8.7°
Reaches altitude 10° 20:28:42 10° 241° (WSW) 1,805 ? -9.1°
Maximum altitude 20:32:45 85° 155° (SSE) 545 ? -9.9°
Drops below altitude 10° 20:36:54 10° 65° (ENE) 1,841 ? -10.6°
Sets 20:39:14 0° 65° (ENE) 2,790 ? -11.0°
